Date String (YYYY-MM-DD hh:mm:ss) UTC,Instrument flags,Ambient pressure (hPa),Sample flow (lpm),Bypass flow (lpm),Sample temperature (°C),Ambient temperature (°C),ASC tube jacket temperature (°C),LED temperature (°C),Box temperature (°C),Sample RH (%),Span deviation,Mass concentration (μg/m³),Mass concentration (μg/m³),Mass concentration (μg/m³)
DateTimeUTC,F1_M11,P_M11,Q1_M11,Q2_M11,T1_M11,T2_M11,T3_M11,T4_M11,T5_M11,U1_M11,ZSPAN_M11,X0_M11,X2_M11,X1_M11
2022-07-01 05:00:00,,0830.9,5.00,0.00,29.5,28.5,00.0,38.5,31.4,26.6,0000.0,0010.41,0003.20,0001.95
2022-07-01 05:01:00,,0830.9,5.01,0.00,29.5,28.5,00.0,38.5,31.4,26.6,0000.0,0010.37,0003.20,0001.95
2022-07-01 05:02:00,,0830.9,5.00,0.00,29.5,28.5,00.0,38.5,31.4,26.6,0000.0,0009.65,0003.17,0001.95
2022-07-01 05:03:00,,0830.9,4.98,0.00,29.5,28.5,00.0,38.5,31.4,26.5,0000.0,0009.86,0003.18,0001.93
2022-07-01 05:04:00,,0830.9,5.00,0.00,29.5,28.5,00.0,38.5,31.4,26.6,0000.0,0008.99,0003.19,0001.93
2022-07-01 05:05:00,,0830.9,4.99,0.00,29.5,28.5,00.0,38.5,31.4,26.6,0000.0,0009.38,0003.21,0001.91
2022-07-01 05:06:00,,0830.9,5.00,0.00,29.5,28.5,00.0,38.5,31.4,26.6,0000.0,0009.29,0003.22,0001.90
2022-07-01 05:07:00,,0830.9,5.01,0.00,29.5,28.5,00.0,38.5,31.4,26.6,0000.0,0009.23,0003.22,0001.89
2022-07-01 05:08:00,,0831.0,5.00,0.00,29.5,28.5,00.0,38.5,31.4,26.6,0000.0,0009.30,0003.24,0001.90
2022-07-01 05:09:00,,0831.0,5.01,0.00,29.5,28.5,00.0,38.5,31.4,26.6,0000.0,0009.58,0003.25,0001.89
2022-07-01 05:10:00,,0831.1,5.02,0.00,29.5,28.5,00.0,38.5,31.3,26.7,0000.0,0009.51,0003.25,0001.88
2022-07-01 05:11:00,,0831.1,5.00,0.00,29.5,28.5,00.0,38.5,31.3,26.7,0000.0,0009.16,0003.24,0001.87
2022-07-01 05:12:00,,0831.1,5.01,0.00,29.5,28.5,00.0,38.4,31.3,26.7,0000.0,0008.79,0003.21,0001.86
2022-07-01 05:13:00,,0831.1,5.00,0.00,29.5,28.4,00.0,38.4,31.3,26.7,0000.0,0008.67,0003.20,0001.84
2022-07-01 05:14:00,,0831.1,4.99,0.00,29.5,28.4,00.0,38.4,31.3,26.7,0000.0,0007.71,0003.15,0001.83
2022-07-01 05:15:00,,0831.1,5.00,0.00,29.5,28.4,00.0,38.4,31.3,26.7,0000.0,0007.62,0003.14,0001.83
2022-07-01 05:16:00,,0831.0,5.00,0.00,29.5,28.4,00.0,38.4,31.3,26.7,0000.0,0007.30,0003.10,0001.83
2022-07-01 05:17:00,,0831.0,5.01,0.00,29.5,28.4,00.0,38.4,31.3,26.7,0000.0,0006.63,0003.02,0001.83
2022-07-01 05:18:00,,0831.0,5.00,0.00,29.5,28.4,00.0,38.4,31.3,26.7,0000.0,0007.82,0002.97,0001.82
2022-07-01 05:19:00,,0831.0,4.99,0.00,29.5,28.4,00.0,38.4,31.3,26.7,0000.0,0007.65,0002.99,0001.81
2022-07-01 05:20:00,,0831.1,5.00,0.00,29.5,28.4,00.0,38.4,31.3,26.7,0000.0,0007.45,0002.98,0001.81
2022-07-01 05:21:00,,0831.1,5.00,0.00,29.4,28.4,00.0,38.4,31.3,26.7,0000.0,0007.47,0002.97,0001.80
2022-07-01 05:22:00,,0831.0,5.00,0.00,29.4,28.4,00.0,38.4,31.2,26.7,0000.0,0007.52,0002.97,0001.79
2022-07-01 05:23:00,,0831.0,5.01,0.00,29.4,28.3,00.0,38.4,31.2,26.7,0000.0,0007.52,0003.01,0001.80
2022-07-01 05:24:00,,0831.0,5.00,0.00,29.4,28.3,00.0,38.4,31.2,26.7,0000.0,0007.66,0003.07,0001.83
2022-07-01 05:25:00,,0831.1,4.99,0.00,29.4,28.3,00.0,38.4,31.2,26.7,0000.0,0007.97,0003.11,0001.85
2022-07-01 05:26:00,,0831.0,5.01,0.00,29.4,28.3,00.0,38.4,31.2,26.7,0000.0,0008.13,0003.16,0001.84
2022-07-01 05:27:00,,0831.0,4.99,0.00,29.4,28.2,00.0,38.4,31.2,26.7,0000.0,0008.39,0003.19,0001.85
2022-07-01 05:28:00,,0831.0,5.00,0.00,29.3,28.2,00.0,38.4,31.1,26.7,0000.0,0008.55,0003.22,0001.85
2022-07-01 05:29:00,,0831.0,5.00,0.00,29.3,28.2,00.0,38.4,31.1,26.7,0000.0,0007.79,0003.28,0001.86
2022-07-01 05:30:00,,0831.0,5.01,0.00,29.3,28.2,00.0,38.3,31.1,26.7,0000.0,0008.28,0003.30,0001.86
2022-07-01 05:31:00,,0831.0,5.00,0.00,29.3,28.2,00.0,38.3,31.1,26.7,0000.0,0008.19,0003.29,0001.83
2022-07-01 05:32:00,,0831.0,4.99,0.00,29.3,28.2,00.0,38.3,31.1,26.8,0000.0,0008.20,0003.29,0001.82
2022-07-01 05:33:00,,0831.0,5.00,0.00,29.3,28.2,00.0,38.3,31.1,26.8,0000.0,0008.38,0003.33,0001.83
2022-07-01 05:34:00,,0831.0,5.01,0.00,29.3,28.2,00.0,38.3,31.1,26.9,0000.0,0008.86,0003.31,0001.80
2022-07-01 05:35:00,,0831.0,5.01,0.00,29.3,28.2,00.0,38.3,31.1,26.8,0000.0,0009.13,0003.28,0001.77
2022-07-01 05:36:00,,0831.0,5.00,0.00,29.3,28.1,00.0,38.3,31.1,26.9,0000.0,0009.60,0003.29,0001.76
2022-07-01 05:37:00,,0831.0,5.00,0.00,29.2,28.1,00.0,38.3,31.1,26.9,0000.0,0009.74,0003.25,0001.77
2022-07-01 05:38:00,,0830.9,5.00,0.00,29.2,28.1,00.0,38.3,31.0,26.9,0000.0,0009.72,0003.21,0001.77
2022-07-01 05:39:00,,0830.9,5.00,0.00,29.2,28.1,00.0,38.3,31.0,26.9,0000.0,0009.87,0003.25,0001.76
2022-07-01 05:40:00,,0830.9,5.01,0.00,29.2,28.1,00.0,38.2,31.0,27.0,0000.0,0009.94,0003.21,0001.75
2022-07-01 05:41:00,,0830.8,4.99,0.00,29.2,28.1,00.0,38.2,31.0,27.0,0000.0,0009.46,0003.17,0001.76
2022-07-01 05:42:00,,0830.7,5.00,0.00,29.2,28.0,00.0,38.2,31.0,27.0,0000.0,0009.26,0003.16,0001.76
2022-07-01 05:43:00,,0830.8,5.00,0.00,29.2,28.0,00.0,38.2,30.9,27.1,0000.0,0009.97,0003.16,0001.76
2022-07-01 05:44:00,,0830.7,5.01,0.00,29.1,28.0,00.0,38.2,30.9,27.1,0000.0,0009.91,0003.11,0001.76
2022-07-01 05:45:00,,0830.6,4.99,0.00,29.1,28.0,00.0,38.2,30.9,27.1,0000.0,0009.40,0003.01,0001.77
2022-07-01 05:46:00,,0830.7,5.01,0.00,29.1,27.9,00.0,38.2,30.9,27.1,0000.0,0009.37,0003.05,0001.79
2022-07-01 05:47:00,,0830.6,5.00,0.00,29.1,27.9,00.0,38.2,30.8,27.1,0000.0,0008.69,0003.07,0001.78
2022-07-01 05:48:00,,0830.7,5.00,0.00,29.1,27.8,00.0,38.1,30.8,27.2,0000.0,0008.31,0002.97,0001.76
2022-07-01 05:49:00,,0830.7,5.00,0.00,29.0,27.8,00.0,38.1,30.8,27.2,0000.0,0008.12,0003.05,0001.73
2022-07-01 05:50:00,,0830.8,4.99,0.00,29.0,27.8,00.0,38.1,30.8,27.3,0000.0,0007.98,0002.96,0001.72
2022-07-01 05:51:00,,0830.8,5.00,0.00,29.0,27.8,00.0,38.1,30.8,27.3,0000.0,0007.70,0002.89,0001.71
2022-07-01 05:52:00,,0830.8,4.99,0.00,29.0,27.7,00.0,38.1,30.8,27.3,0000.0,0007.70,0002.86,0001.69
2022-07-01 05:53:00,,0830.8,5.01,0.00,29.0,27.7,00.0,38.0,30.7,27.3,0000.0,0007.80,0002.79,0001.67
2022-07-01 05:54:00,,0830.9,5.00,0.00,28.9,27.7,00.0,38.0,30.7,27.4,0000.0,0007.61,0002.76,0001.67
2022-07-01 05:55:00,,0830.9,4.99,0.00,28.9,27.7,00.0,38.0,30.7,27.4,0000.0,0007.66,0002.74,0001.65
2022-07-01 05:56:00,,0830.9,5.00,0.00,28.9,27.7,00.0,38.0,30.7,27.4,0000.0,0007.99,0002.81,0001.64
2022-07-01 05:57:00,,0830.9,5.01,0.00,28.9,27.7,00.0,38.0,30.7,27.5,0000.0,0007.86,0002.78,0001.62
2022-07-01 05:58:00,,0830.9,5.01,0.00,28.9,27.7,00.0,38.0,30.7,27.5,0000.0,0008.03,0002.74,0001.60
2022-07-01 05:59:00,,0830.9,4.99,0.00,28.9,27.7,00.0,38.0,30.7,27.5,0000.0,0008.50,0002.75,0001.60
